SL-12 R/B(2), 15334

Orbit data source: Space-Track

SL-12 R/B(2), 15334 is space debris in LEO originally from a launch on Fri, 28 Sep 1984 UTC launched from the Tyuratam Missile And Space Complex (TTMTR). Debris objects in space refer to the collection of defunct objects orbiting the Earth. Examples of debris include non-operational satellites, rocket bodies, and fragments generated from explosions, collisions, or faulty payload assembly.

Loading next visibility...
Identifier
15334, 1984-106B
Orbit
LEO
Country
Flag of CISCIS
Related business
Manufacturer
NPO Energiya
Mission
Spacecraft
Bus & Motor
BLOK DM, Unknown motor
Mass
2,660 kg wet, 2,440 kg dry
Launch date (UTC)
1984-09-28 (42 years ago)
Launch vehicle
Unknown
Launch site
Tyuratam Missile And Space Complex (TTMTR)
Object type
Payload
Rocket body
Debris
Shape & HBR
Unknown
Radar Cross Section
Large (>1 m²)

Expand to show TLE details & history
Last TLE update: 11 hours ago

TLE from 11 hours ago
0 SL-12 R/B(2)
1 15334U 84106B   26095.18972584  .00000067  00000-0  58773-4 0  9998
2 15334  71.0009 132.9220 0001592 120.9894 239.1386 14.15650609 23581
Epoch: 2026-04-05T04:33Z
TLE epoch observation values (Epoch: 2026-04-05T04:33:12.312Z)
Latitude
0.00002°
Longitude
-128.87801°
Altitude
843.09 km
Speed
7.431 km/s
True Right ascension
08h 51m 41s
True Declination
0° 00' 00"
Sunlit
Object was in full shadow at epoch
Visualization orbit readout
Latitude
Unknown
Longitude
Unknown
Altitude
Unknown
Speed
Unknown
Apparent Right ascension
Unknown
Apparent Declination
Unknown
Sunlit
N/A
Visualization observer readout
Local Sidereal Time
21:15:23
Azimuth
Unknown
Elevation
Unknown
Doppler factor
Unknown
Orbital elements
Apogee altitude
839.173 km
Perigee altitude
836.875 km
Semi-major axis
7,216.161 km
Eccentricity
0.00016
Inclination
71.0009°
RAAN
132.922°
Arg. of periapsis
120.9894°
True anomaly
239.12294°
Mean anomaly
239.1386°
Eccentric anomaly
239.13077°
Mean motion
3.54066 °/min
Orbital period
101.68 mins
BSTAR
0.000058773
Loading maneuver chart data...
Computing Atmospheric mass density...

Documentation

Showing up to 5 results
|